15min,AgWx,beryljct,423,20AUG2020:00:00:00,70.3,12.83,64.3,65.4,65.7,66.7,63.9,44,50,40,0.956,43.1,45.3,41.3,2.85,3.6,153,20,6.6,0.00047,0.00068,75.4,75.5,9,0,.,.,13.44,0.00,0.00
15min,AgWx,beryljct,423,20AUG2020:00:15:00,69.1,12.82,65.5,64.9,63.0,65.2,61.6,51,59,42,0.882,44.6,47.3,41.3,0.57,1.3,182,56,3.4,0.00018,0.00028,75.1,75.4,9,0,.,.,13.45,0.00,0.00
15min,AgWx,beryljct,423,20AUG2020:00:30:00,68.3,12.81,64.7,62.9,64.3,66.5,61.5,47,61,38,0.968,43.4,48.0,40.2,0,2.1,155,65,6.4,0.00029,0.00044,74.9,75.3,9,0,.,.,13.45,0.00,0.00
15min,AgWx,beryljct,423,20AUG2020:00:45:00,67.6,12.81,72.3,72.0,65.6,72.0,62.4,42,53,28,0.756,41.6,45.7,37.3,0.986,2.1,221,42,5.1,0.00033,0.00050,74.6,75.3,9,0,.,.,13.45,0.00,0.00
15min,AgWx,beryljct,423,20AUG2020:01:00:00,67.4,12.81,72.9,67.7,67.2,72.6,62.2,44,59,28,0.910,44.4,48.0,37.6,4.604,1.6,101,41,4.9,0.00025,0.00040,74.4,75.2,9,0,.,.,13.45,0.00,0.00
15min,AgWx,beryljct,423,20AUG2020:01:15:00,67.5,12.8,63.9,63.2,68.4,72.7,62.8,42,58,31,1.060,44.1,48.0,39.5,7.804,1.7,70,50,8.1,0.00028,0.00045,74.2,75.1,9,0,.,.,13.45,0.00,0.00
15min,AgWx,beryljct,423,20AUG2020:01:30:00,67.1,12.78,67.2,66.5,64.9,66.5,63.3,39,51,35,0.780,39.6,44.7,38.1,2.85,5.8,3.4,13,12.6,0.00068,0.00092,74.0,75.1,9,0,.,.,13.45,0.00,0.00
15min,AgWx,beryljct,423,20AUG2020:01:45:00,66.5,12.78,65.1,64.4,64.3,66.5,62.0,42,53,35,0.849,40.6,45.3,38.0,1.535,1.5,85,62,3.7,0.00024,0.00038,73.8,75.0,9,0,.,.,13.45,0.00,0.00
15min,AgWx,beryljct,423,20AUG2020:02:00:00,65.3,12.76,62.8,61.2,60.3,65.0,57.8,56,65,40,0.893,44.1,46.7,40.0,3.661,1.8,190,34,3.7,0.00020,0.00031,73.6,74.9,9,0,.,.,13.45,0.00,0.00
15min,AgWx,beryljct,423,20AUG2020:02:15:00,64.3,12.77,63.3,62.3,62.3,63.4,61.5,47,50,43,0.930,41.6,43.1,40.4,3.464,4.1,172,7.7,6.6,0.00046,0.00064,73.3,74.8,9,0,.,.,13.45,0.00,0.00
15min,AgWx,beryljct,423,20AUG2020:02:30:00,63.8,12.75,63.7,63.0,62.9,64.1,61.9,45,50,41,0.832,41.4,43.3,39.8,2.214,2.6,162,11,3.7,0.00034,0.00051,73.1,74.7,9,0,.,.,13.45,0.00,0.00
15min,AgWx,beryljct,423,20AUG2020:02:45:00,63.3,12.75,59.1,58.7,61.7,64.2,57.9,48,62,40,0.951,41.4,45.4,38.9,1.6,1.7,170,23,2.7,0.00023,0.00036,72.9,74.6,8,0,.,.,13.45,0.00,0.00
15min,AgWx,beryljct,423,20AUG2020:03:00:00,62.6,12.74,58.3,57.1,60.1,62.2,57.1,53,63,44,0.975,42.6,45.6,39.9,3.354,3.1,139,23,4.3,0.00032,0.00046,72.7,74.5,9,0,.,.,13.45,0.00,0.00
15min,AgWx,beryljct,423,20AUG2020:03:15:00,61.7,12.73,57.3,56.3,56.7,57.5,55.6,64,72,57,1.012,44.6,46.8,42.2,3.047,2.0,170,15,3.6,0.00017,0.00026,72.5,74.4,9,0,.,.,13.45,0.00,0.00
15min,AgWx,beryljct,423,20AUG2020:03:30:00,60.8,12.73,58.0,57.9,56.5,58.1,55.1,60,69,47,0.776,42.5,45.6,38.0,3.902,3.1,168,28,4.5,0.00026,0.00037,72.2,74.3,9,0,.,.,13.45,0.00,0.00
15min,AgWx,beryljct,423,20AUG2020:03:45:00,60.1,12.73,58.2,58.1,56.6,58.1,55.2,49,61,43,0.719,37.7,42.2,34.5,2.784,2.5,183,7.3,5.0,0.00027,0.00041,72.0,74.3,9,0,.,.,13.46,0.00,0.00
15min,AgWx,beryljct,423,20AUG2020:04:00:00,59.6,12.72,54.4,55.5,56.8,58.2,55.2,56,69,44,1.037,40.9,45.5,36.6,1.315,1.6,142,22,2.8,0.00018,0.00028,71.8,74.2,9,0,.,.,13.45,0.00,0.00
15min,AgWx,beryljct,423,20AUG2020:04:15:00,59.0,12.71,55.9,56.1,56.1,58.2,54.3,58,70,47,0.892,41.5,45.5,37.8,4.932,2.8,152,30,4.9,0.00024,0.00035,71.6,74.1,9,0,.,.,13.45,0.00,0.00
15min,AgWx,beryljct,423,20AUG2020:04:30:00,58.4,12.7,55.2,54.8,54.2,56.1,53.3,68,73,59,0.895,43.8,45.3,41.7,1.973,2.4,156,13,4.9,0.00017,0.00025,71.4,74.0,9,0,.,.,13.46,0.00,0.00
15min,AgWx,beryljct,423,20AUG2020:04:45:00,58.0,12.7,56.2,56.3,55.6,56.6,54.6,52,61,47,0.736,38.2,41.8,36.1,1.469,2.7,183,5.9,3.7,0.00027,0.00040,71.2,73.9,9,0,.,.,13.46,0.00,0.00
15min,AgWx,beryljct,423,20AUG2020:05:00:00,57.8,12.71,53.7,54.0,56.3,57.9,54.0,51,63,45,0.892,38.3,41.8,36.0,4.297,2.5,159,32,4.6,0.00026,0.00039,71.0,73.8,9,0,.,.,13.45,0.00,0.00
15min,AgWx,beryljct,423,20AUG2020:05:15:00,57.4,12.7,52.9,52.9,53.6,54.7,52.8,66,73,58,0.933,42.7,44.4,40.0,0,1.9,150,11,4.7,0.00018,0.00031,70.8,73.7,9,0,.,.,13.45,0.00,0.00
15min,AgWx,beryljct,423,20AUG2020:05:30:00,56.9,12.67,51.3,51.8,53.5,55.0,51.8,66,75,55,0.982,42.2,44.1,39.1,4.012,2.0,143,16,5.1,0.00019,0.00032,70.6,73.6,9,0,.,.,13.46,0.00,0.00
15min,AgWx,beryljct,423,20AUG2020:05:45:00,56.3,12.69,54.9,54.5,52.5,54.5,51.5,71,81,52,0.749,43.3,45.8,36.8,1.513,2.0,189,60,4.5,0.00016,0.00027,70.4,73.5,9,0,.,.,13.46,0.00,0.00
15min,AgWx,beryljct,423,20AUG2020:06:00:00,55.9,12.69,54.5,53.8,53.4,54.7,52.0,63,74,52,0.923,41.2,44.2,37.2,2.039,2.1,312,37,4.0,0.00023,0.00038,70.2,73.4,9,4,.,.,13.46,0.00,0.00
15min,AgWx,beryljct,423,20AUG2020:06:15:00,55.7,12.69,53.9,53.9,52.2,53.9,50.7,69,80,59,0.830,42.1,45.0,39.7,2.762,2.7,335,15,3.6,0.00030,0.00046,70.0,73.3,9,15,.,.,13.46,0.00,0.00
15min,AgWx,beryljct,423,20AUG2020:06:30:00,55.7,12.71,53.5,52.9,52.6,53.9,51.4,65,70,59,0.862,41.1,42.2,39.7,1.841,2.2,341,5.4,3.3,0.00047,0.00063,69.8,73.2,9,47,.,.,13.45,0.00,0.00
15min,AgWx,beryljct,423,20AUG2020:06:45:00,56.4,12.73,56.5,56.4,55.4,58.4,53.0,58,64,48,0.926,40.6,42.6,38.5,1.447,1.9,336,29,4.7,0.00069,0.00089,69.7,73.1,9,85,.,.,13.45,0.00,0.00
15min,AgWx,beryljct,423,20AUG2020:07:00:00,58.0,12.71,59.8,59.1,57.8,59.7,56.1,59,69,48,1.021,43.4,46.8,40.1,3.705,1.7,81,92,3.9,0.00088,0.00108,69.5,73.0,9,127,.,.,13.45,0.00,0.00
15min,AgWx,beryljct,423,20AUG2020:07:15:00,59.8,12.72,60.7,58.9,58.1,59.4,57.1,66,74,55,1.147,46.6,49.1,43.1,3.858,3.2,134,31,6.1,0.00118,0.00147,69.3,72.9,9,175,.,.,13.45,0.00,0.00
15min,AgWx,beryljct,423,20AUG2020:07:30:00,61.9,12.79,62.0,61.7,61.2,61.9,59.1,60,68,52,1.239,47.2,50.8,44.2,3.661,2.9,154,28,4.6,0.00159,0.00192,69.1,72.8,9,242,.,.,13.45,0.00,0.00
15min,AgWx,beryljct,423,20AUG2020:07:45:00,64.2,12.84,62.4,62.3,62.4,62.9,61.8,66,69,63,1.259,50.8,51.7,49.4,3.683,3.9,148,6.5,5.3,0.00166,0.00202,69.0,72.7,9,239,.,.,13.44,0.00,0.00
15min,AgWx,beryljct,423,20AUG2020:08:00:00,64.9,12.77,63.3,63.6,62.6,64.0,61.8,64,70,55,1.171,50.1,52.1,47.3,2.674,2.7,146,16,3.7,0.00104,0.00131,68.9,72.6,9,118,.,.,13.45,0.00,0.00
15min,AgWx,beryljct,423,20AUG2020:08:15:00,66.2,13.05,67.8,67.7,65.5,67.7,63.5,58,64,52,1.332,50.5,54.1,46.5,0.899,2.3,142,5.6,3.6,0.00223,0.00258,68.8,72.5,9,334,.,.,13.44,0.00,0.00
15min,AgWx,beryljct,423,20AUG2020:08:30:00,69.3,13.32,70.7,70.2,69.4,70.6,67.7,55,66,45,1.666,52.6,58.4,48.1,0.965,1.1,104,31,1.9,0.00267,0.00295,68.7,72.4,8,406,.,.,13.44,0.00,0.00
15min,AgWx,beryljct,423,20AUG2020:08:45:00,73.0,13.48,72.7,72.7,71.6,72.7,70.2,53,66,43,1.266,53.3,58.4,48.4,0.088,0.8,101,16,1.7,0.00315,0.00345,68.7,72.3,9,475,.,.,13.44,0.00,0.00
15min,AgWx,beryljct,423,20AUG2020:09:00:00,76.7,13.56,77.4,76.3,74.2,76.3,72.7,46,54,35,1.097,51.9,56.7,47.0,1.403,0.3,99,17,1.6,0.00347,0.00373,68.7,72.2,9,519,.,.,13.44,0.00,0.00
15min,AgWx,beryljct,423,20AUG2020:09:15:00,80.2,13.64,77.5,77.3,77.2,78.0,76.4,37,49,26,1.520,48.3,56.2,39.8,1.447,1.1,62,43,2.2,0.00387,0.00429,68.8,72.1,9,547,.,.,13.43,0.00,0.00
15min,AgWx,beryljct,423,20AUG2020:09:30:00,83.1,13.9,81.0,79.6,78.0,79.6,77.1,46,54,35,1.207,55.7,60.2,49.4,1.271,1.3,89,11,2.8,0.00430,0.00475,68.8,72.0,8,607,.,.,13.42,0.00,0.00
15min,AgWx,beryljct,423,20AUG2020:09:45:00,85.8,13.83,80.5,80.4,79.9,81.0,79.3,47,58,27,1.747,57.5,64.2,43.7,1.052,1.1,80,24,2.0,0.00462,0.00508,69.0,71.9,8,644,.,.,13.42,0.00,0.00
15min,AgWx,beryljct,423,20AUG2020:10:00:00,87.9,13.84,82.0,82.3,81.6,82.4,80.5,43,56,33,1.516,56.6,63.8,49.4,1.578,1.7,93,8.4,2.3,0.00513,0.00572,69.2,71.9,8,699,.,.,13.42,0.00,0.00
15min,AgWx,beryljct,423,20AUG2020:10:15:00,89.9,13.73,82.8,83.5,83.1,83.6,82.1,36,46,28,1.651,53.6,59.3,47.0,0.921,1.3,116,3.3,1.8,0.00541,0.00598,69.5,71.8,9,737,.,.,13.41,0.00,0.00
15min,AgWx,beryljct,423,20AUG2020:10:30:00,91.6,13.79,83.8,84.2,84.1,84.9,83.3,36,48,27,1.855,54.1,62.6,47.1,1.491,1.4,107,5.6,2.0,0.00572,0.00634,69.7,71.7,8,773,.,.,13.41,0.00,0.00
15min,AgWx,beryljct,423,20AUG2020:10:45:00,93.0,13.74,85.3,85.1,84.8,85.4,84.1,39,53,26,1.436,56.6,66.0,46.4,2.433,1.9,119,11,2.5,0.00605,0.00676,70.1,71.7,8,806,.,.,13.41,0.00,0.00
15min,AgWx,beryljct,423,20AUG2020:11:00:00,93.8,13.76,85.8,85.6,85.5,86.1,85.1,40,53,29,2.032,58.1,66.4,49.8,3.573,2.5,108,8.5,3.6,0.00636,0.00717,70.5,71.7,9,835,.,.,13.41,0.00,0.00
15min,AgWx,beryljct,423,20AUG2020:11:15:00,94.4,13.69,86.2,86.8,86.4,87.3,85.6,38,51,28,1.805,57.7,65.6,49.8,2.74,3.5,95,6.4,5.7,0.00673,0.00774,71.0,71.6,9,865,.,.,13.41,0.00,0.00
15min,AgWx,beryljct,423,20AUG2020:11:30:00,94.4,13.67,88.3,87.5,86.0,87.5,85.2,44,54,32,1.611,61.4,66.8,53.9,1.71,4.0,101,9.6,6.7,0.00690,0.00792,71.5,71.6,8,889,.,.,13.41,0.00,0.00
15min,AgWx,beryljct,423,20AUG2020:11:45:00,94.5,13.65,89.9,90.1,88.5,90.1,85.1,29,45,19,0.921,51.6,62.9,41.3,3.639,3.4,77,15,7.5,0.00633,0.00738,72.1,71.6,9,784,.,.,13.41,0.00,0.00
15min,AgWx,beryljct,423,20AUG2020:12:00:00,95.6,13.32,89.1,88.5,89.3,90.5,87.2,30,48,20,1.048,53.0,66.0,43.6,4.165,2.7,98,24,4.4,0.00480,0.00562,72.7,71.6,9,556,.,.,13.41,0.00,0.00
15min,AgWx,beryljct,423,20AUG2020:12:15:00,94.7,13.29,90.7,89.0,88.9,90.1,87.2,23,43,17,1.086,45.9,62.2,39.8,3.595,3.7,60,17,7.0,0.00404,0.00504,73.4,71.6,9,422,.,.,13.41,0.00,0.00
15min,AgWx,beryljct,423,20AUG2020:12:30:00,95.3,13.27,93.0,92.9,91.1,93.2,89.2,26,43,16,1.108,50.7,63.9,39.2,8.18,4.2,34,79,10.1,0.00758,0.00888,74.0,71.7,9,928,.,.,13.41,0.00,0.00
15min,AgWx,beryljct,423,20AUG2020:12:45:00,96.0,13.24,94.0,94.7,93.7,95.1,91.8,17,24,14,0.874,41.9,50.4,38.7,14.03,9.6,265,20,17.5,0.00683,0.00924,74.5,71.8,9,623,.,.,13.41,0.00,0.00
15min,AgWx,beryljct,423,20AUG2020:13:00:00,96.9,13.24,91.3,91.5,94.5,95.9,91.5,17,23,14,0.996,43.6,50.0,39.2,11.95,11.2,277,16,15.1,0.00848,0.01130,75.1,71.9,9,828,.,.,13.41,0.00,0.00
15min,AgWx,beryljct,423,20AUG2020:13:15:00,96.2,13.27,89.9,88.8,91.2,92.7,87.5,19,27,16,1.167,43.4,50.1,39.4,5.875,6.7,278,23,11.4,0.00418,0.00584,75.6,71.9,8,312,.,.,13.41,0.00,0.00
15min,AgWx,beryljct,423,20AUG2020:13:30:00,95.9,13.26,90.7,89.9,92.3,93.9,89.1,19,26,15,1.029,44.1,50.8,38.5,4.735,4.3,297,57,10.0,0.00443,0.00565,76.1,72.0,9,435,.,.,13.41,0.00,0.00
15min,AgWx,beryljct,423,20AUG2020:13:45:00,96.6,13.24,91.3,93.9,94.6,96.9,90.1,16,23,14,0.987,41.9,50.9,38.2,2.411,6.6,237,49,15.2,0.00660,0.00848,76.5,72.1,9,685,.,.,13.41,0.00,0.00
15min,AgWx,beryljct,423,20AUG2020:14:00:00,97.5,13.23,93.4,93.6,95.0,97.2,93.2,15,21,13,0.752,39.9,47.6,37.2,12.32,9.2,247,16,17.3,0.00645,0.00884,76.8,72.3,8,568,.,.,13.41,0.00,0.00
15min,AgWx,beryljct,423,20AUG2020:14:15:00,97.1,13.24,94.0,94.3,94.1,96.1,92.0,15,19,13,0.775,39.4,44.9,36.1,8.77,8.1,238,27,12.8,0.00516,0.00727,77.2,72.4,9,396,.,.,13.41,0.00,0.00
15min,AgWx,beryljct,423,20AUG2020:14:30:00,96.9,13.25,95.5,96.5,94.7,97.0,93.8,15,17,14,0.893,40.3,43.2,38.0,15.74,6.5,222,15,15.7,0.00504,0.00680,77.6,72.5,9,455,.,.,13.41,0.00,0.00
15min,AgWx,beryljct,423,20AUG2020:14:45:00,97.6,13.19,95.1,94.9,95.5,97.6,94.5,15,18,13,0.869,40.2,45.4,37.8,9.43,10.2,251,28,16.7,0.00645,0.00906,77.8,72.7,9,547,.,.,13.41,0.00,0.00
15min,AgWx,beryljct,423,20AUG2020:15:00:00,97.7,13.21,97.5,96.6,95.1,96.6,94.2,15,16,13,0.834,39.6,42.6,37.1,9.6,9.6,241,17,16.5,0.00593,0.00837,78.1,72.8,9,501,.,.,13.41,0.00,0.00
15min,AgWx,beryljct,423,20AUG2020:15:15:00,99.0,13.2,95.4,94.8,95.3,97.9,92.6,18,25,14,0.874,45.1,52.3,39.4,7.388,7.0,292,47,31.3,0.00708,0.00905,78.4,73.0,9,763,.,.,13.41,0.00,0.00
15min,AgWx,beryljct,423,20AUG2020:15:30:00,99.5,13.18,93.8,94.1,95.0,96.9,93.0,15,20,13,0.813,40.3,47.1,37.1,7.453,8.6,219,34,16.6,0.00492,0.00711,78.6,73.1,9,373,.,.,13.41,0.00,0.00
15min,AgWx,beryljct,423,20AUG2020:15:45:00,98.0,13.19,95.5,94.9,93.9,94.9,93.2,15,18,14,0.885,39.9,43.6,38.0,8.37,7.1,225,37,14.8,0.00397,0.00579,78.9,73.3,9,289,.,.,13.42,0.01,0.00
15min,AgWx,beryljct,423,20AUG2020:16:00:00,97.2,13.24,93.4,93.7,94.1,95.7,93.4,15,17,14,0.867,39.8,42.5,36.9,0.088,7.3,226,37,14.6,0.00370,0.00555,79.2,73.4,9,224,.,.,13.41,0.00,0.00
15min,AgWx,beryljct,423,20AUG2020:16:15:00,96.6,13.24,92.2,92.1,93.7,95.3,92.1,17,22,14,1.123,41.5,48.5,38.4,1.929,6.7,175,31,12.2,0.00372,0.00542,79.4,73.5,8,313,.,.,13.42,0.00,0.00
15min,AgWx,beryljct,423,20AUG2020:16:30:00,96.5,13.23,94.8,96.0,94.4,96.1,92.0,15,21,14,0.810,40.3,46.6,38.3,19.01,9.8,213,53,20.3,0.00575,0.00815,79.5,73.7,9,521,.,.,13.42,0.00,0.00
15min,AgWx,beryljct,423,20AUG2020:16:45:00,97.0,13.19,93.8,93.9,94.4,95.8,93.9,15,16,14,0.858,40.1,41.5,38.7,20.12,15.7,211,8.0,25.8,0.00667,0.01017,79.7,73.8,9,467,.,.,13.42,0.00,0.00
15min,AgWx,beryljct,423,20AUG2020:17:00:00,97.2,13.24,94.2,94.2,94.5,95.0,93.9,15,16,14,0.827,39.9,41.2,38.7,10.28,15.6,200,10,24.1,0.00670,0.01022,79.8,74.0,9,464,.,.,13.42,0.00,0.00
15min,AgWx,beryljct,423,20AUG2020:17:15:00,96.9,13.15,91.2,92.2,93.8,95.0,92.2,15,17,14,0.857,39.5,40.7,38.1,7.234,10.9,202,13,18.1,0.00421,0.00675,79.9,74.1,8,266,.,.,13.42,0.00,0.00
15min,AgWx,beryljct,423,20AUG2020:17:30:00,95.6,13.13,92.2,92.5,92.5,93.3,91.4,16,18,15,0.842,40.2,42.6,38.7,4.187,6.0,210,14,9.7,0.00217,0.00363,80.0,74.2,9,175,.,.,13.42,0.00,0.00
15min,AgWx,beryljct,423,20AUG2020:17:45:00,95.1,13.25,93.3,93.9,93.6,94.3,92.3,15,17,14,0.872,39.3,42.0,37.6,3.398,5.4,178,12,8.6,0.00264,0.00402,80.1,74.3,9,257,.,.,13.42,0.00,0.00
15min,AgWx,beryljct,423,20AUG2020:18:00:00,95.1,13.2,93.0,92.6,92.3,93.8,90.8,20,26,15,0.914,45.2,51.6,39.3,2.302,4.4,144,29,8.3,0.00251,0.00362,80.1,74.5,9,275,.,.,13.41,0.00,0.00
15min,AgWx,beryljct,423,20AUG2020:18:15:00,95.3,13.11,92.7,93.7,93.6,94.0,92.7,15,18,13,0.791,38.8,44.1,36.3,9.34,7.4,226,20,12.5,0.00292,0.00472,80.1,74.6,9,220,.,.,13.42,0.00,0.00
15min,AgWx,beryljct,423,20AUG2020:18:30:00,95.0,13.06,92.9,92.7,93.1,93.7,92.7,14,16,14,0.766,37.7,39.7,36.6,7.673,10.1,230,11,15.9,0.00237,0.00322,80.1,74.7,9,169,.,.,13.42,0.00,0.00
15min,AgWx,beryljct,423,20AUG2020:18:45:00,94.3,13.04,92.2,92.0,92.2,92.7,91.8,15,16,14,0.733,37.8,39.6,36.3,9.01,8.3,219,9.4,11.9,0.00195,0.00272,80.0,74.8,8,126,.,.,13.42,0.00,0.00
15min,AgWx,beryljct,423,20AUG2020:19:00:00,93.1,13,88.8,89.3,90.7,92.6,88.3,16,18,13,0.763,38.1,40.9,35.1,5.459,5.8,257,21,10.5,0.00131,0.00193,80.0,74.9,8,64,.,.,13.42,0.00,0.00
15min,AgWx,beryljct,423,20AUG2020:19:15:00,90.9,12.99,88.1,87.8,87.8,89.3,87.1,17,18,16,0.742,38.0,39.6,36.6,8.11,6.8,257,11,8.4,0.00127,0.00183,79.9,75.0,9,22,.,.,13.43,0.01,0.00
15min,AgWx,beryljct,423,20AUG2020:19:30:00,89.1,12.97,86.9,87.1,87.3,87.9,86.9,17,18,16,0.738,37.0,38.2,36.0,7.98,7.7,236,7.3,10.4,0.00135,0.00192,79.7,75.1,9,5,.,.,13.43,0.00,0.00
15min,AgWx,beryljct,423,20AUG2020:19:45:00,87.6,12.98,84.8,85.3,86.8,87.5,85.3,17,18,16,0.761,36.8,38.0,35.9,6.708,7.7,242,4.5,10.1,0.00134,0.00190,79.6,75.1,9,1,.,.,13.43,0.00,0.00
15min,AgWx,beryljct,423,20AUG2020:20:00:00,86.7,12.97,84.9,85.6,86.5,87.4,85.2,18,18,17,0.772,37.5,38.0,36.7,6.577,8.9,233,5.3,12.2,0.00147,0.00204,79.4,75.2,9,0,.,.,13.43,0.00,0.00
15min,AgWx,beryljct,423,20AUG2020:20:15:00,85.7,12.96,83.0,83.2,84.6,85.6,83.2,19,21,18,0.804,38.2,39.3,37.6,6.335,6.7,232,6.0,7.9,0.00110,0.00159,79.2,75.3,9,0,.,.,13.43,0.00,0.00
15min,AgWx,beryljct,423,20AUG2020:20:30:00,84.5,12.95,83.4,83.0,83.2,83.9,82.7,21,21,20,0.797,38.9,39.3,38.3,6.862,6.4,214,4.7,8.4,0.00101,0.00146,78.9,75.3,8,0,.,.,13.43,0.00,0.00
15min,AgWx,beryljct,423,20AUG2020:20:45:00,83.6,12.95,82.6,83.0,83.3,83.7,83.0,21,22,20,0.816,39.2,39.8,38.6,6.226,7.2,217,5.8,9.1,0.00113,0.00161,78.7,75.4,9,0,.,.,13.43,0.00,0.00
15min,AgWx,beryljct,423,20AUG2020:21:00:00,83.0,12.94,81.5,81.9,82.5,83.1,81.6,22,22,21,0.820,39.3,39.8,38.9,7.278,6.8,210,6.7,9.1,0.00105,0.00151,78.4,75.4,9,0,.,.,13.43,0.00,0.00
15min,AgWx,beryljct,423,20AUG2020:21:15:00,82.4,12.94,81.7,81.7,81.8,82.1,81.5,22,23,22,0.819,39.5,40.0,39.2,6.84,6.8,216,4.7,8.4,0.00103,0.00147,78.2,75.4,9,0,.,.,13.43,0.00,0.00
15min,AgWx,beryljct,423,20AUG2020:21:30:00,82.0,12.93,82.8,82.8,82.1,82.9,81.5,22,22,21,0.811,39.3,39.8,39.0,8.81,8.0,220,5.4,10.0,0.00119,0.00165,77.9,75.4,8,0,.,.,13.43,0.01,0.00
15min,AgWx,beryljct,423,20AUG2020:21:45:00,82.0,12.93,83.5,83.4,83.1,83.4,82.8,21,21,21,0.802,39.1,39.4,38.7,10.5,9.6,224,6.0,11.4,0.00141,0.00191,77.7,75.5,9,0,.,.,13.43,0.00,0.00
15min,AgWx,beryljct,423,20AUG2020:22:00:00,82.3,12.93,84.6,83.8,83.7,83.9,83.4,20,21,20,0.795,38.9,39.3,38.4,13.48,10.6,227,5.8,13.5,0.00155,0.00207,77.4,75.5,9,0,.,.,13.43,0.00,0.00
15min,AgWx,beryljct,423,20AUG2020:22:15:00,82.6,12.91,82.7,83.1,83.6,84.1,82.8,21,21,20,0.807,39.0,39.6,38.6,8.72,10.2,222,6.8,13.5,0.00151,0.00202,77.2,75.5,9,0,.,.,13.43,0.00,0.00
15min,AgWx,beryljct,423,20AUG2020:22:30:00,82.4,12.91,81.5,82.0,82.4,83.2,81.9,22,22,21,0.820,39.2,39.5,38.8,6.818,8.1,215,5.2,10.5,0.00122,0.00170,77.0,75.4,9,0,.,.,13.43,0.00,0.00
15min,AgWx,beryljct,423,20AUG2020:22:45:00,81.9,12.9,82.2,82.4,81.8,82.4,81.2,22,23,21,0.812,39.3,39.6,39.0,8.24,7.9,223,9.3,10.1,0.00117,0.00163,76.7,75.4,9,0,.,.,13.43,0.00,0.00
15min,AgWx,beryljct,423,20AUG2020:23:00:00,80.9,12.9,74.7,71.6,76.5,82.7,69.9,29,39,21,0.875,41.1,43.8,39.1,4.998,4.6,75,90,8.3,0.00060,0.00090,76.5,75.4,8,0,.,.,13.43,0.00,0.00
15min,AgWx,beryljct,423,20AUG2020:23:15:00,78.5,12.88,70.2,70.5,72.2,74.3,70.5,33,37,29,0.937,41.8,43.4,40.0,8.05,5.1,145,26,8.2,0.00054,0.00079,76.3,75.4,9,0,.,.,13.44,0.01,0.00
15min,AgWx,beryljct,423,20AUG2020:23:30:00,76.2,12.88,70.3,71.0,70.8,71.6,69.8,33,38,31,0.824,40.5,43.0,39.2,6.226,6.7,163,6.2,8.0,0.00070,0.00097,76.1,75.3,9,0,.,.,13.44,0.00,0.00
15min,AgWx,beryljct,423,20AUG2020:23:45:00,74.7,12.88,73.0,72.7,71.9,72.7,70.6,31,33,28,0.776,39.4,40.3,38.0,7.629,7.5,169,6.2,9.5,0.00082,0.00112,75.9,75.3,9,0,.,.,13.44,0.01,0.00
15min,AgWx,bigpiney,439,20AUG2020:00:00:00,63.3,12.68,65.4,64.5,62.3,64.5,61.0,48,51,42,0.865,42.2,43.0,40.8,2.718,4.7,267,61,7.1,0.00026,0.00039,55.8,53.1,46,0,0,0.0,8.18,0.00,0.00
15min,AgWx,bigpiney,439,20AUG2020:00:15:00,63.7,12.67,59.9,60.1,63.5,65.7,59.8,45,52,40,0.904,41.4,42.5,40.6,2.433,2.8,327,37,4.5,0.00010,0.00018,55.8,53.1,46,0,0,0.0,8.18,0.00,0.00
15min,AgWx,bigpiney,439,20AUG2020:00:30:00,63.8,12.66,60.9,60.7,60.0,60.7,59.4,52,54,51,0.917,42.4,42.7,42.1,0.855,2.0,73,52,3.9,-0.00004,-0.00002,55.8,53.1,46,0,0,0.0,8.18,0.00,0.00
15min,AgWx,bigpiney,439,20AUG2020:00:45:00,63.6,12.67,62.7,62.4,61.8,62.9,60.7,48,51,46,0.904,42.1,42.6,41.7,0,1.5,145,14,3.2,-0.00009,-0.00009,55.7,53.2,46,0,0,0.0,8.18,0.00,0.00
15min,AgWx,bigpiney,439,20AUG2020:01:00:00,63.4,12.66,57.0,58.7,60.3,62.6,58.7,53,58,47,0.973,43.0,43.9,41.9,3.003,1.1,194,13,4.4,-0.00015,-0.00020,55.7,53.1,46,0,0,0.0,8.18,0.00,0.00
15min,AgWx,bigpiney,439,20AUG2020:01:15:00,62.9,12.65,57.6,57.5,58.0,58.7,57.3,59,61,57,0.955,43.8,44.2,43.3,4.209,2.8,270,52,4.6,0.00001,0.00004,55.6,53.1,46,0,0,0.0,8.18,0.00,0.00
15min,AgWx,bigpiney,439,20AUG2020:01:30:00,62.3,12.64,53.8,54.6,56.1,58.0,54.1,64,70,58,0.987,43.9,44.7,43.3,1.6,4.8,88,41,10.7,0.00011,0.00018,55.6,53.2,46,0,0,0.0,8.18,0.00,0.00
15min,AgWx,bigpiney,439,20AUG2020:01:45:00,61.4,12.64,53.7,54.9,55.6,57.2,54.1,63,69,58,0.946,43.1,44.2,42.3,4.253,4.4,150,54,7.4,0.00009,0.00015,55.6,53.1,46,0,0,0.0,8.18,0.00,0.00
15min,AgWx,bigpiney,439,20AUG2020:02:00:00,60.7,12.62,60.5,59.5,57.3,59.5,54.1,57,66,51,0.881,42.2,43.2,41.3,1.096,2.4,60,36,4.3,-0.00001,0.00002,55.5,53.1,46,0,0,0.0,8.18,0.00,0.00
15min,AgWx,bigpiney,439,20AUG2020:02:15:00,60.1,12.62,57.9,57.6,57.8,60.2,56.0,55,60,49,0.900,41.8,42.4,41.1,0,1.9,345,53,3.1,-0.00005,-0.00005,55.5,53.1,46,0,0,0.0,8.18,0.00,0.00
15min,AgWx,bigpiney,439,20AUG2020:02:30:00,59.6,12.61,58.2,58.2,57.8,58.4,56.4,54,58,53,0.883,41.5,41.9,41.2,1.973,1.9,270,23,3.4,-0.00005,-0.00005,55.5,53.1,46,0,0,0.0,8.18,0.00,0.00
15min,AgWx,bigpiney,439,20AUG2020:02:45:00,59.0,12.6,58.8,59.0,57.6,59.0,56.2,54,57,52,0.882,41.3,41.5,41.0,3.924,1.3,358,41,3.9,-0.00014,-0.00018,55.4,53.2,46,0,0,0.0,8.18,0.00,0.00
15min,AgWx,bigpiney,439,20AUG2020:03:00:00,58.5,12.6,57.0,56.6,55.8,58.9,53.8,59,64,52,0.895,41.6,41.9,41.2,1.535,0.6,42,38,4.2,-0.00021,-0.00031,55.4,53.2,46,0,0,0.0,8.18,0.00,0.00
15min,AgWx,bigpiney,439,20AUG2020:03:15:00,58.0,12.59,54.8,56.2,56.8,58.0,55.7,57,59,55,0.893,41.7,42.1,41.3,0,0.9,155,25,2.5,-0.00017,-0.00024,55.4,53.1,46,0,0,0.0,8.18,0.00,0.00
15min,AgWx,bigpiney,439,20AUG2020:03:30:00,57.8,12.58,58.8,57.5,56.8,57.7,55.3,57,60,55,0.883,41.8,42.1,41.3,1.162,1.7,201,17,3.1,-0.00008,-0.00009,55.3,53.2,46,0,0,0.0,8.18,0.00,0.00
15min,AgWx,bigpiney,439,20AUG2020:03:45:00,57.4,12.57,56.2,56.2,56.0,57.9,54.7,58,61,54,0.893,41.7,42.0,40.9,0.745,2.0,105,22,4.5,-0.00006,-0.00006,55.3,53.1,46,0,0,0.0,8.18,0.00,0.00
15min,AgWx,bigpiney,439,20AUG2020:04:00:00,56.8,12.55,52.6,52.1,53.5,56.3,51.3,63,68,58,0.881,41.2,41.7,40.5,3.047,3.0,288,23,5.9,0.00000,0.00003,55.2,53.1,46,0,0,0.0,8.18,0.00,0.00
15min,AgWx,bigpiney,439,20AUG2020:04:15:00,56.1,12.56,58.7,54.8,54.7,56.4,52.2,60,66,57,0.875,41.2,41.8,40.4,2.959,3.0,271,28,4.3,0.00002,0.00005,55.2,53.1,46,0,0,0.0,8.18,0.00,0.00
15min,AgWx,bigpiney,439,20AUG2020:04:30:00,55.7,12.55,54.1,54.0,56.8,59.3,53.7,57,64,52,0.909,41.7,42.4,41.2,3.683,5.1,216,21,6.9,0.00018,0.00027,55.1,53.1,46,0,0,0.0,8.18,0.00,0.00
15min,AgWx,bigpiney,439,20AUG2020:04:45:00,55.5,12.54,54.8,56.7,56.3,59.3,53.0,59,66,53,0.903,42.1,42.7,41.8,7.147,3.3,211,17,7.1,0.00005,0.00010,55.1,53.1,46,0,0,0.0,8.18,0.00,0.00
15min,AgWx,bigpiney,439,20AUG2020:05:00:00,55.5,12.54,51.9,51.3,52.8,56.4,51.0,66,71,58,0.905,41.7,42.0,41.5,4.669,6.3,211,8.0,7.8,0.00015,0.00021,55.1,53.1,46,0,0,0.0,8.18,0.00,0.00
15min,AgWx,bigpiney,439,20AUG2020:05:15:00,55.3,12.53,60.0,59.3,53.9,59.3,51.3,64,70,53,0.909,42.0,42.5,41.7,3.091,3.9,175,14,5.2,0.00006,0.00010,55.0,53.1,46,0,0,0.0,8.18,0.00,0.00
15min,AgWx,bigpiney,439,20AUG2020:05:30:00,55.4,12.51,60.1,58.3,57.8,59.4,56.7,56,58,53,0.916,42.1,42.3,41.7,4.056,2.9,160,31,4.8,0.00004,0.00008,55.0,53.1,46,1,0,0.0,8.18,0.00,0.00
15min,AgWx,bigpiney,439,20AUG2020:05:45:00,55.9,12.51,57.2,56.9,58.5,59.8,56.8,55,59,52,0.919,42.2,42.5,42.0,2.894,2.8,144,16,4.8,0.00005,0.00010,54.9,53.1,46,4,0,0.0,8.18,0.00,0.00
15min,AgWx,bigpiney,439,20AUG2020:06:00:00,56.5,12.54,53.5,53.4,55.7,57.0,53.3,63,69,58,0.945,43.3,44.2,42.4,4.889,4.1,80,60,5.8,-0.00007,0.00018,54.9,53.1,46,25,0,0.0,8.18,0.00,0.00
15min,AgWx,bigpiney,439,20AUG2020:06:15:00,56.8,12.54,55.0,55.3,54.3,55.4,53.3,65,68,62,0.930,42.8,43.1,42.6,1.863,2.5,19,31,5.1,-0.00001,0.00014,54.8,53.1,46,45,0,0.0,8.18,0.00,0.00
15min,AgWx,bigpiney,439,20AUG2020:06:30:00,57.0,12.56,53.4,53.9,54.3,55.2,53.9,64,66,63,0.933,42.6,42.8,42.4,4.713,3.0,331,7.9,5.1,0.00030,0.00050,54.8,53.1,46,60,0,0.0,8.18,0.00,0.00
15min,AgWx,bigpiney,439,20AUG2020:06:45:00,56.9,12.61,54.5,54.0,53.5,54.0,53.3,69,71,66,0.983,43.6,44.6,42.8,1.841,2.8,309,21,5.1,0.00043,0.00061,54.7,53.1,46,95,0,0.0,8.18,0.00,0.00
15min,AgWx,bigpiney,439,20AUG2020:07:00:00,56.9,12.64,55.7,55.9,55.4,56.0,54.1,65,69,63,0.976,43.9,44.2,43.6,2.85,2.7,323,7.8,3.6,0.00058,0.00079,54.7,53.0,46,85,0,0.0,8.18,0.00,0.00
15min,AgWx,bigpiney,439,20AUG2020:07:15:00,57.2,12.78,56.2,55.9,55.8,56.0,55.5,66,69,64,0.988,44.5,45.5,44.0,1.096,2.2,329,12,4.1,0.00075,0.00093,54.6,53.0,46,133,0,0.0,8.18,0.00,0.00
15min,AgWx,bigpiney,439,20AUG2020:07:30:00,57.6,12.97,57.0,56.6,56.4,57.0,55.9,65,74,61,1.064,44.8,48.5,43.8,0,0.5,336,38,1.8,0.00074,0.00082,54.6,53.0,46,135,0,0.0,8.18,0.00,0.00
15min,AgWx,bigpiney,439,20AUG2020:07:45:00,58.2,13.38,58.9,58.9,57.7,58.9,56.7,66,73,61,1.044,46.2,48.6,45.1,2.872,1.8,27,9.9,3.5,0.00127,0.00147,54.5,53.0,46,236,0,0.0,8.18,0.00,0.00
15min,AgWx,bigpiney,439,20AUG2020:08:00:00,59.4,13.4,60.3,60.4,59.9,60.7,58.9,58,62,54,1.007,44.9,46.5,43.6,3.771,4.5,51,12,6.9,0.00199,0.00245,54.5,53.0,46,335,0,0.0,8.18,0.00,0.00
15min,AgWx,bigpiney,439,20AUG2020:08:15:00,61.0,13.31,61.1,61.3,60.6,61.4,60.2,57,60,54,1.020,45.2,46.4,44.0,4.779,5.0,54,14,7.5,0.00199,0.00250,54.4,53.0,46,302,0,0.0,8.18,0.00,0.00
15min,AgWx,bigpiney,439,20AUG2020:08:30:00,62.3,13.28,61.4,61.4,61.1,61.4,60.9,56,58,54,1.061,45.1,46.2,44.2,2.631,3.1,64,12,5.7,0.00151,0.00187,54.4,53.0,46,203,0,0.0,8.18,0.00,0.00